Details From RKSS - Seoul Gimpo
To RKTU - Cheongju Intl
Flight Number -
Tags Generated
Created
Modified
Stats Distance 62 nm / 115 km
Max Altitude 0 ft / 0 m
Waypoints 2
Social Downloads 1
Likes 0
Share VATSIM

Download

Looking for another format? Having issues loading an existing format? Contact us
Advertisement - Login to hide

Notes

Generated

Route

RKSS RKTU

ID Type Via Altitude Latitude Longitude Leg Dist Tot Dist Heading (true) Name
O RKSS APT - 0 ft / 0 m 37.56798˚ 126.77553˚ - 0 nm - -
O RKTU APT - 0 ft / 0 m 36.70788˚ 127.48750˚ 61 nm 61 nm 146° / 147° -

Altitude Profile

Advertisement - Login to hide

RKSS

Details ICAO RKSS (GMP)
Name Seoul Gimpo
Region South Korea
Timezone Asia/Seoul (UTC+9.0)
Stats Elevation 58 ft / 18 m (AMSL)
Location 37.558310° 126.790584°
Runways 2
Magnetic Variation 8.427° W

METAR

RKSS 201800Z 04004KT CAVOK 12/M00 Q1019 NOSIG

Decode

TAF

TAF RKSS 201700Z 2018/2124 08006KT CAVOK TN12/2021Z TX24/2106Z TN15/2121Z BECMG 2101/2102 10015G25KT BECMG 2103/2104 15007KT TEMPO 2107/2115 28007KT BECMG 2118/2119 09010KT BECMG 2120/2121 15005KT

Decode

Departure Runways

ID Width Length Bearing (true) Bearing (mag) Surface Threshold Offset Overrun Length
14L 148 ft / 45 m 11,811 ft / 3,600 m 135.13° 143.56° Asphalt 0 ft / 0 m 394 ft / 120 m
14R 197 ft / 60 m 10,499 ft / 3,200 m 135.08° 143.51° Asphalt 0 ft / 0 m 390 ft / 119 m
32L 197 ft / 60 m 10,499 ft / 3,200 m 315.09° 323.52° Asphalt 0 ft / 0 m 385 ft / 117 m
32R 148 ft / 45 m 11,811 ft / 3,600 m 315.15° 323.58° Asphalt 0 ft / 0 m 394 ft / 120 m

RKTU

Details ICAO RKTU (CJJ)
Name CHEONGJU INTL
Region South Korea
Timezone Asia/Seoul (UTC+9.0)
Stats Elevation 191 ft / 58 m (AMSL)
Location 36.716564° 127.499165°
Runways 2
Magnetic Variation 8.252° W

METAR

RKTU 201800Z 04005KT CAVOK 11/06 Q1019 NOSIG

Decode

TAF

TAF RKTU 201700Z 2018/2124 12008KT 9999 SCT030 SCT200 TN10/2021Z TX25/2106Z

Decode

Destination Runways

ID Width Length Bearing (true) Bearing (mag) Surface Threshold Offset Overrun Length
06L 200 ft / 61 m 8,955 ft / 2,729 m 51.72° 59.97° Concrete 0 ft / 0 m 1,000 ft / 305 m
06R 150 ft / 46 m 8,900 ft / 2,713 m 51.91° 60.16° Concrete 0 ft / 0 m 1,000 ft / 305 m
24L 150 ft / 46 m 8,900 ft / 2,713 m 231.93° 240.18° Concrete 0 ft / 0 m 1,000 ft / 305 m
24R 200 ft / 61 m 8,955 ft / 2,729 m 231.73° 239.98° Concrete 0 ft / 0 m 1,000 ft / 305 m

Approach Navaids

Runway Type Ident Frequency Range Bearing (true) Bearing (mag) Slope Elevation
24R Localiser ICHG 111.70 MHz 18 nm / 33 km 231.65° 239.90° - 190 ft / 58 m (AMSL)
24R Glidescope ICHG 111.70 MHz 10 nm / 19 km 233.00° 241.25° 3.00° 190 ft / 58 m (AMSL)
24R DME ICHG 111.70 MHz 18 nm / 33 km - - - 11 ft / 3 m (AMSL)

Popular Alternatives